Time,TemperatureF,DewpointF,PressureIn,WindDirection,WindDirectionDegrees,WindSpeedMPH,WindSpeedGustMPH,Humidity,HourlyPrecipIn,Conditions,Clouds,dailyrainin,SolarRadiationWatts/m^2,SoftwareType,DateUTC
2013-02-23 00:02:00,76.6,32.5,-100.00,SE,146,5.0,18.0,20,0.00,,,0.00,0.0,meteohub,2013-02-23 05:02:00,
2013-02-23 00:07:00,76.5,31.1,-100.00,SSW,209,10.0,18.0,19,0.00,,,0.00,0.0,meteohub,2013-02-23 05:07:00,
2013-02-23 00:12:00,75.9,30.7,-100.00,SE,133,7.0,18.0,19,0.00,,,0.00,0.0,meteohub,2013-02-23 05:12:00,
2013-02-23 00:17:00,75.7,30.6,-100.00,South,178,5.0,18.0,19,0.00,,,0.00,0.0,meteohub,2013-02-23 05:17:00,
2013-02-23 00:22:00,75.6,30.4,-100.00,SE,136,12.0,21.0,19,0.00,,,0.00,0.0,meteohub,2013-02-23 05:22:00,
2013-02-23 00:27:00,75.7,31.8,-100.00,SE,135,7.0,21.0,20,0.00,,,0.00,0.0,meteohub,2013-02-23 05:27:00,
2013-02-23 00:32:00,75.6,31.6,-100.00,South,185,9.0,21.0,20,0.00,,,0.00,0.0,meteohub,2013-02-23 05:32:00,
2013-02-23 00:37:00,75.4,31.5,-100.00,SSE,165,10.0,21.0,20,0.00,,,0.00,0.0,meteohub,2013-02-23 05:37:00,
2013-02-23 00:42:00,75.4,31.5,-100.00,South,183,13.0,21.0,20,0.00,,,0.00,0.0,meteohub,2013-02-23 05:42:00,
2013-02-23 00:47:00,75.4,31.5,-100.00,SSE,165,9.0,21.0,20,0.00,,,0.00,0.0,meteohub,2013-02-23 05:47:00,
2013-02-23 00:52:00,75.4,31.5,-100.00,SSW,201,7.0,21.0,20,0.00,,,0.00,0.0,meteohub,2013-02-23 05:52:00,
2013-02-23 00:57:00,75.4,31.5,-100.00,South,191,6.0,19.0,20,0.00,,,0.00,0.0,meteohub,2013-02-23 05:57:00,
2013-02-23 01:02:00,75.7,30.6,-100.00,SSW,206,6.0,19.0,19,0.00,,,0.00,0.0,meteohub,2013-02-23 06:02:00,
2013-02-23 01:07:00,75.4,30.2,-100.00,South,169,5.0,19.0,19,0.00,,,0.00,0.0,meteohub,2013-02-23 06:07:00,
2013-02-23 01:17:00,74.7,30.9,-100.00,South,172,3.0,19.0,20,0.00,,,0.00,0.0,meteohub,2013-02-23 06:17:00,
2013-02-23 01:27:00,74.7,32.2,-100.00,South,180,4.0,19.0,21,0.00,,,0.00,0.0,meteohub,2013-02-23 06:27:00,
2013-02-23 01:32:00,74.8,33.4,-100.00,South,179,5.0,16.0,22,0.00,,,0.00,0.0,meteohub,2013-02-23 06:32:00,
2013-02-23 01:37:00,74.8,34.5,-100.00,South,169,3.0,16.0,23,0.00,,,0.00,0.0,meteohub,2013-02-23 06:37:00,
2013-02-23 01:42:00,75.0,34.7,-100.00,South,180,0.0,16.0,23,0.00,,,0.00,0.0,meteohub,2013-02-23 06:42:00,
2013-02-23 01:47:00,75.2,34.9,-100.00,South,181,4.0,16.0,23,0.00,,,0.00,0.0,meteohub,2013-02-23 06:47:00,
2013-02-23 01:52:00,75.4,35.1,-100.00,SSE,163,5.0,16.0,23,0.00,,,0.00,0.0,meteohub,2013-02-23 06:52:00,
2013-02-23 01:57:00,75.4,35.1,-100.00,South,188,10.0,10.0,23,0.00,,,0.00,0.0,meteohub,2013-02-23 06:57:00,
2013-02-23 02:07:00,76.1,32.2,-100.00,SSE,160,2.0,6.0,20,0.00,,,0.00,0.0,meteohub,2013-02-23 07:07:00,
2013-02-23 02:12:00,76.1,30.9,-100.00,SSW,198,6.0,6.0,19,0.00,,,0.00,0.0,meteohub,2013-02-23 07:12:00,
2013-02-23 02:17:00,75.9,30.7,-100.00,South,191,6.0,6.0,19,0.00,,,0.00,0.0,meteohub,2013-02-23 07:17:00,
2013-02-23 02:22:00,75.9,30.7,-100.00,South,185,7.0,15.0,19,0.00,,,0.00,0.0,meteohub,2013-02-23 07:22:00,
2013-02-23 02:27:00,75.9,30.7,-100.00,SW,230,14.0,15.0,19,0.00,,,0.00,0.0,meteohub,2013-02-23 07:27:00,
2013-02-23 02:32:00,75.9,30.7,-100.00,South,186,8.0,15.0,19,0.00,,,0.00,0.0,meteohub,2013-02-23 07:32:00,
2013-02-23 02:37:00,75.9,32.0,-100.00,South,184,12.0,15.0,20,0.00,,,0.00,0.0,meteohub,2013-02-23 07:37:00,
2013-02-23 02:42:00,75.9,32.0,-100.00,South,190,12.0,15.0,20,0.00,,,0.00,0.0,meteohub,2013-02-23 07:42:00,
2013-02-23 02:47:00,75.9,32.0,-100.00,SSW,194,5.0,15.0,20,0.00,,,0.00,0.0,meteohub,2013-02-23 07:47:00,
2013-02-23 02:52:00,75.7,31.8,-100.00,SE,126,10.0,16.0,20,0.00,,,0.00,0.0,meteohub,2013-02-23 07:52:00,
2013-02-23 02:57:00,75.7,31.8,-100.00,SSW,207,13.0,16.0,20,0.00,,,0.00,0.0,meteohub,2013-02-23 07:57:00,
2013-02-23 03:02:00,75.7,31.8,-100.00,SSE,168,11.0,16.0,20,0.00,,,0.00,0.0,meteohub,2013-02-23 08:02:00,
2013-02-23 03:07:00,75.7,31.8,-100.00,SSE,167,10.0,16.0,20,0.00,,,0.00,0.0,meteohub,2013-02-23 08:07:00,
2013-02-23 03:12:00,75.9,32.0,-100.00,SSW,192,5.0,16.0,20,0.00,,,0.00,0.0,meteohub,2013-02-23 08:12:00,
2013-02-23 03:17:00,75.7,31.8,-100.00,SSE,157,4.0,16.0,20,0.00,,,0.00,0.0,meteohub,2013-02-23 08:17:00,
2013-02-23 03:22:00,75.7,31.8,-100.00,SSE,168,6.0,18.0,20,0.00,,,0.00,0.0,meteohub,2013-02-23 08:22:00,
2013-02-23 03:27:00,75.7,31.8,-100.00,South,175,9.0,18.0,20,0.00,,,0.00,0.0,meteohub,2013-02-23 08:27:00,
2013-02-23 03:32:00,75.7,31.8,-100.00,ESE,123,6.0,18.0,20,0.00,,,0.00,0.0,meteohub,2013-02-23 08:32:00,
2013-02-23 03:37:00,75.7,31.8,-100.00,SSW,194,6.0,18.0,20,0.00,,,0.00,0.0,meteohub,2013-02-23 08:37:00,
2013-02-23 03:42:00,75.6,31.6,-100.00,SSE,153,9.0,18.0,20,0.00,,,0.00,0.0,meteohub,2013-02-23 08:42:00,
2013-02-23 03:47:00,75.6,31.6,-100.00,South,180,5.0,17.0,20,0.00,,,0.00,0.0,meteohub,2013-02-23 08:47:00,
2013-02-23 03:52:00,75.6,32.9,-100.00,SSW,201,10.0,17.0,21,0.00,,,0.00,0.0,meteohub,2013-02-23 08:52:00,
2013-02-23 03:57:00,75.7,33.1,-100.00,South,190,10.0,17.0,21,0.00,,,0.00,0.0,meteohub,2013-02-23 08:57:00,
2013-02-23 04:02:00,75.7,33.1,-100.00,South,175,5.0,17.0,21,0.00,,,0.00,0.0,meteohub,2013-02-23 09:02:00,
2013-02-23 04:07:00,75.6,32.9,-100.00,SSW,192,9.0,17.0,21,0.00,,,0.00,0.0,meteohub,2013-02-23 09:07:00,
2013-02-23 04:12:00,75.6,31.6,-100.00,SW,215,6.0,19.0,20,0.00,,,0.00,0.0,meteohub,2013-02-23 09:12:00,
2013-02-23 04:17:00,75.6,31.6,-100.00,SSW,197,10.0,19.0,20,0.00,,,0.00,0.0,meteohub,2013-02-23 09:17:00,
2013-02-23 04:22:00,75.6,32.9,-100.00,ESE,123,10.0,19.0,21,0.00,,,0.00,0.0,meteohub,2013-02-23 09:22:00,
2013-02-23 04:27:00,75.4,32.7,-100.00,SSE,163,5.0,19.0,21,0.00,,,0.00,0.0,meteohub,2013-02-23 09:27:00,
2013-02-23 04:32:00,75.4,32.7,-100.00,South,174,4.0,19.0,21,0.00,,,0.00,0.0,meteohub,2013-02-23 09:32:00,
2013-02-23 04:37:00,75.4,32.7,-100.00,South,190,7.0,19.0,21,0.00,,,0.00,0.0,meteohub,2013-02-23 09:37:00,
2013-02-23 04:42:00,75.4,31.5,-100.00,SSW,196,4.0,17.0,20,0.00,,,0.00,0.0,meteohub,2013-02-23 09:42:00,
2013-02-23 04:47:00,75.2,31.5,-100.00,SSW,192,7.0,17.0,20,0.00,,,0.00,0.0,meteohub,2013-02-23 09:47:00,
2013-02-23 04:52:00,75.2,31.5,-100.00,ESE,123,11.0,17.0,20,0.00,,,0.00,0.0,meteohub,2013-02-23 09:52:00,
2013-02-23 04:57:00,75.0,32.4,-100.00,South,180,5.0,17.0,21,0.00,,,0.00,0.0,meteohub,2013-02-23 09:57:00,
2013-02-23 05:02:00,75.0,32.4,-100.00,SSW,199,5.0,15.0,21,0.00,,,0.00,0.0,meteohub,2013-02-23 10:02:00,
2013-02-23 05:07:00,75.0,32.4,-100.00,SSW,201,7.0,15.0,21,0.00,,,0.00,0.0,meteohub,2013-02-23 10:07:00,
2013-02-23 05:17:00,75.0,31.3,-100.00,SSW,194,7.0,15.0,20,0.00,,,0.00,0.0,meteohub,2013-02-23 10:17:00,
2013-02-23 05:27:00,75.0,31.3,-100.00,SSW,192,4.0,15.0,20,0.00,,,0.00,0.0,meteohub,2013-02-23 10:27:00,
2013-02-23 05:32:00,75.0,31.3,-100.00,SSW,197,4.0,15.0,20,0.00,,,0.00,0.0,meteohub,2013-02-23 10:32:00,
2013-02-23 05:37:00,74.8,31.1,-100.00,South,187,10.0,15.0,20,0.00,,,0.00,0.0,meteohub,2013-02-23 10:37:00,
2013-02-23 05:42:00,75.0,31.3,-100.00,SSW,195,6.0,15.0,20,0.00,,,0.00,0.0,meteohub,2013-02-23 10:42:00,
2013-02-23 05:47:00,75.0,31.3,-100.00,South,180,3.0,15.0,20,0.00,,,0.00,0.0,meteohub,2013-02-23 10:47:00,
2013-02-23 05:57:00,75.0,31.3,-100.00,SSW,209,7.0,13.0,20,0.00,,,0.00,0.0,meteohub,2013-02-23 10:57:00,
2013-02-23 06:02:00,75.2,31.5,-100.00,SSW,211,6.0,13.0,20,0.00,,,0.00,0.0,meteohub,2013-02-23 11:02:00,
2013-02-23 06:07:00,75.2,32.5,-100.00,SSW,196,9.0,13.0,21,0.00,,,0.00,0.0,meteohub,2013-02-23 11:07:00,
2013-02-23 06:12:00,75.2,32.5,-100.00,South,176,5.0,13.0,21,0.00,,,0.00,0.0,meteohub,2013-02-23 11:12:00,
2013-02-23 06:17:00,75.0,32.4,-100.00,SSW,192,3.0,13.0,21,0.00,,,0.00,0.0,meteohub,2013-02-23 11:17:00,
2013-02-23 06:22:00,75.0,32.4,-100.00,South,188,5.0,13.0,21,0.00,,,0.00,0.0,meteohub,2013-02-23 11:22:00,
2013-02-23 06:27:00,75.0,32.4,-100.00,SW,217,9.0,13.0,21,0.00,,,0.00,0.0,meteohub,2013-02-23 11:27:00,
2013-02-23 06:32:00,75.0,31.3,-100.00,SSW,192,9.0,11.0,20,0.00,,,0.00,0.0,meteohub,2013-02-23 11:32:00,
2013-02-23 06:37:00,75.0,32.4,-100.00,SSW,196,5.0,11.0,21,0.00,,,0.00,0.0,meteohub,2013-02-23 11:37:00,
2013-02-23 06:42:00,75.0,32.4,-100.00,SSW,207,1.0,11.0,21,0.00,,,0.00,0.0,meteohub,2013-02-23 11:42:00,
2013-02-23 06:47:00,75.0,32.4,-100.00,SSW,195,5.0,11.0,21,0.00,,,0.00,0.0,meteohub,2013-02-23 11:47:00,
2013-02-23 06:52:00,75.0,32.4,-100.00,SSW,206,7.0,11.0,21,0.00,,,0.00,5.0,meteohub,2013-02-23 11:52:00,
2013-02-23 06:57:00,75.0,32.4,-100.00,South,189,3.0,11.0,21,0.00,,,0.00,7.0,meteohub,2013-02-23 11:57:00,
2013-02-23 07:02:00,75.0,32.4,-100.00,SSE,167,11.0,11.0,21,0.00,,,0.00,11.0,meteohub,2013-02-23 12:02:00,
2013-02-23 07:07:00,75.2,33.8,-100.00,SW,216,10.0,16.0,22,0.00,,,0.00,16.0,meteohub,2013-02-23 12:07:00,
2013-02-23 07:12:00,75.4,34.0,-100.00,SSW,196,12.0,16.0,22,0.00,,,0.00,25.0,meteohub,2013-02-23 12:12:00,
2013-02-23 07:17:00,75.4,35.1,-100.00,SSW,192,6.0,16.0,23,0.00,,,0.00,25.0,meteohub,2013-02-23 12:17:00,
2013-02-23 07:22:00,75.4,34.0,-100.00,SSW,201,12.0,16.0,22,0.00,,,0.00,33.0,meteohub,2013-02-23 12:22:00,
2013-02-23 07:27:00,75.4,34.0,-100.00,SSW,203,8.0,16.0,22,0.00,,,0.00,35.0,meteohub,2013-02-23 12:27:00,
2013-02-23 07:32:00,75.6,35.2,-100.00,SSW,202,10.0,16.0,23,0.00,,,0.00,46.0,meteohub,2013-02-23 12:32:00,
2013-02-23 07:37:00,75.7,35.2,-100.00,SSW,195,5.0,16.0,23,0.00,,,0.00,125.0,meteohub,2013-02-23 12:37:00,
2013-02-23 07:42:00,75.7,35.2,-100.00,SSW,205,3.0,16.0,23,0.00,,,0.00,151.0,meteohub,2013-02-23 12:42:00,
2013-02-23 07:47:00,75.9,36.5,-100.00,SSW,207,8.0,16.0,24,0.00,,,0.00,171.0,meteohub,2013-02-23 12:47:00,
2013-02-23 07:52:00,76.3,35.8,-100.00,SW,218,5.0,16.0,23,0.00,,,0.00,216.0,meteohub,2013-02-23 12:52:00,
2013-02-23 08:02:00,76.6,36.1,-100.00,SSW,203,4.0,13.0,23,0.00,,,0.00,257.0,meteohub,2013-02-23 13:02:00,
2013-02-23 08:07:00,76.8,37.2,-100.00,SSW,196,5.0,13.0,24,0.00,,,0.00,91.0,meteohub,2013-02-23 13:07:00,
2013-02-23 08:12:00,76.8,37.2,-100.00,SSW,206,6.0,13.0,24,0.00,,,0.00,267.0,meteohub,2013-02-23 13:12:00,
2013-02-23 08:17:00,76.6,38.1,-100.00,SSW,210,5.0,13.0,25,0.00,,,0.00,77.0,meteohub,2013-02-23 13:17:00,
2013-02-23 08:22:00,76.8,38.3,-100.00,SSW,202,9.0,14.0,25,0.00,,,0.00,304.0,meteohub,2013-02-23 13:22:00,
2013-02-23 08:27:00,77.4,39.7,-100.00,SSW,200,12.0,14.0,26,0.00,,,0.00,338.0,meteohub,2013-02-23 13:27:00,
2013-02-23 08:32:00,77.4,40.8,-100.00,SSW,200,5.0,14.0,27,0.00,,,0.00,65.0,meteohub,2013-02-23 13:32:00,
2013-02-23 08:37:00,77.2,40.6,-100.00,SSW,205,14.0,14.0,27,0.00,,,0.00,142.0,meteohub,2013-02-23 13:37:00,
2013-02-23 08:42:00,77.4,40.8,-100.00,SW,219,8.0,17.0,27,0.00,,,0.00,494.0,meteohub,2013-02-23 13:42:00,
2013-02-23 08:47:00,78.1,43.2,-100.00,SSW,199,10.0,17.0,29,0.00,,,0.00,499.0,meteohub,2013-02-23 13:47:00,
2013-02-23 08:52:00,78.3,45.1,-100.00,SSW,196,10.0,17.0,31,0.00,,,0.00,564.0,meteohub,2013-02-23 13:52:00,
2013-02-23 08:57:00,78.3,47.7,-100.00,South,178,14.0,17.0,34,0.00,,,0.00,561.0,meteohub,2013-02-23 13:57:00,
2013-02-23 09:02:00,78.3,48.4,-100.00,SSW,200,13.0,21.0,35,0.00,,,0.00,480.0,meteohub,2013-02-23 14:02:00,
2013-02-23 09:07:00,77.7,47.1,-100.00,SSW,194,11.0,21.0,34,0.00,,,0.00,183.0,meteohub,2013-02-23 14:07:00,
2013-02-23 09:12:00,78.3,47.7,-100.00,SSE,158,5.0,21.0,34,0.00,,,0.00,557.0,meteohub,2013-02-23 14:12:00,
2013-02-23 09:17:00,78.6,48.7,-100.00,SSW,205,14.0,21.0,35,0.00,,,0.00,216.0,meteohub,2013-02-23 14:17:00,
2013-02-23 09:22:00,78.1,46.6,-100.00,SSW,211,11.0,20.0,33,0.00,,,0.00,629.0,meteohub,2013-02-23 14:22:00,
2013-02-23 09:27:00,77.7,47.8,-100.00,SSW,198,11.0,20.0,35,0.00,,,0.00,225.0,meteohub,2013-02-23 14:27:00,
2013-02-23 09:32:00,77.9,48.0,-100.00,SSW,209,11.0,20.0,35,0.00,,,0.00,610.0,meteohub,2013-02-23 14:32:00,
2013-02-23 09:37:00,78.3,49.1,-100.00,South,190,8.0,20.0,36,0.00,,,0.00,707.0,meteohub,2013-02-23 14:37:00,
2013-02-23 09:42:00,78.8,48.9,-100.00,SSW,209,14.0,22.0,35,0.00,,,0.00,708.0,meteohub,2013-02-23 14:42:00,
2013-02-23 09:47:00,79.0,51.3,-100.00,South,184,7.0,22.0,38,0.00,,,0.00,206.0,meteohub,2013-02-23 14:47:00,
2013-02-23 09:52:00,78.6,49.5,-100.00,SSW,202,4.0,22.0,36,0.00,,,0.00,380.0,meteohub,2013-02-23 14:52:00,
2013-02-23 09:57:00,78.6,48.7,-100.00,South,182,13.0,22.0,35,0.00,,,0.00,322.0,meteohub,2013-02-23 14:57:00,
2013-02-23 10:02:00,79.0,48.2,-100.00,SW,216,7.0,23.0,34,0.00,,,0.00,784.0,meteohub,2013-02-23 15:02:00,
2013-02-23 10:07:00,79.0,48.9,-100.00,SSW,193,9.0,23.0,35,0.00,,,0.00,214.0,meteohub,2013-02-23 15:07:00,
2013-02-23 10:12:00,79.3,48.6,-100.00,SSE,148,11.0,23.0,34,0.00,,,0.00,779.0,meteohub,2013-02-23 15:12:00,
2013-02-23 10:17:00,79.9,50.5,-100.00,SSW,209,10.0,23.0,36,0.00,,,0.00,860.0,meteohub,2013-02-23 15:17:00,
2013-02-23 10:22:00,79.9,51.3,-100.00,SSW,195,6.0,21.0,37,0.00,,,0.00,884.0,meteohub,2013-02-23 15:22:00,
2013-02-23 10:27:00,79.9,51.3,-100.00,SSW,192,17.0,21.0,37,0.00,,,0.00,338.0,meteohub,2013-02-23 15:27:00,
2013-02-23 10:32:00,79.3,50.7,-100.00,South,182,9.0,21.0,37,0.00,,,0.00,221.0,meteohub,2013-02-23 15:32:00,
2013-02-23 10:37:00,79.5,50.2,-100.00,SSE,159,7.0,21.0,36,0.00,,,0.00,220.0,meteohub,2013-02-23 15:37:00,
2013-02-23 10:42:00,80.2,50.2,-100.00,South,180,11.0,19.0,35,0.00,,,0.00,858.0,meteohub,2013-02-23 15:42:00,
2013-02-23 10:47:00,80.1,51.4,-100.00,SSW,202,9.0,19.0,37,0.00,,,0.00,200.0,meteohub,2013-02-23 15:47:00,
2013-02-23 10:52:00,80.1,52.2,-100.00,South,179,5.0,19.0,38,0.00,,,0.00,636.0,meteohub,2013-02-23 15:52:00,
2013-02-23 10:57:00,80.1,52.2,-100.00,SSE,160,9.0,19.0,38,0.00,,,0.00,383.0,meteohub,2013-02-23 15:57:00,
2013-02-23 11:02:00,80.2,52.3,-100.00,SE,146,9.0,21.0,38,0.00,,,0.00,882.0,meteohub,2013-02-23 16:02:00,
2013-02-23 11:07:00,80.4,51.8,-100.00,SE,142,8.0,21.0,37,0.00,,,0.00,882.0,meteohub,2013-02-23 16:07:00,
2013-02-23 11:12:00,80.6,52.0,-100.00,South,180,10.0,21.0,37,0.00,,,0.00,925.0,meteohub,2013-02-23 16:12:00,
2013-02-23 11:17:00,80.6,51.3,-100.00,SSW,198,5.0,21.0,36,0.00,,,0.00,877.0,meteohub,2013-02-23 16:17:00,
2013-02-23 11:22:00,80.2,51.6,-100.00,SSW,202,9.0,19.0,37,0.00,,,0.00,236.0,meteohub,2013-02-23 16:22:00,
2013-02-23 11:27:00,80.6,50.4,-100.00,SSW,206,11.0,19.0,35,0.00,,,0.00,403.0,meteohub,2013-02-23 16:27:00,
2013-02-23 11:32:00,81.1,50.9,-100.00,SSW,203,10.0,19.0,35,0.00,,,0.00,977.0,meteohub,2013-02-23 16:32:00,
2013-02-23 11:37:00,81.3,51.8,-100.00,SSW,192,9.0,19.0,36,0.00,,,0.00,1000.0,meteohub,2013-02-23 16:37:00,
2013-02-23 11:42:00,81.1,53.1,-100.00,SSW,207,11.0,17.0,38,0.00,,,0.00,905.0,meteohub,2013-02-23 16:42:00,
2013-02-23 11:52:00,81.3,53.2,-100.00,SSW,198,9.0,17.0,38,0.00,,,0.00,914.0,meteohub,2013-02-23 16:52:00,
2013-02-23 11:57:00,81.3,53.2,-100.00,SSW,199,21.0,21.0,38,0.00,,,0.00,895.0,meteohub,2013-02-23 16:57:00,
2013-02-23 12:02:00,81.1,50.9,-100.00,SSW,197,13.0,22.0,35,0.00,,,0.00,904.0,meteohub,2013-02-23 17:02:00,
2013-02-23 12:07:00,81.1,52.3,-100.00,SSE,155,7.0,22.0,37,0.00,,,0.00,974.0,meteohub,2013-02-23 17:07:00,
2013-02-23 12:12:00,81.3,51.8,-100.00,South,178,6.0,22.0,36,0.00,,,0.00,998.0,meteohub,2013-02-23 17:12:00,
2013-02-23 12:17:00,81.1,50.9,-100.00,South,177,17.0,22.0,35,0.00,,,0.00,911.0,meteohub,2013-02-23 17:17:00,
2013-02-23 12:22:00,81.3,52.5,-100.00,SSW,202,17.0,20.0,37,0.00,,,0.00,970.0,meteohub,2013-02-23 17:22:00,
2013-02-23 12:27:00,81.7,54.3,-100.00,South,180,5.0,20.0,39,0.00,,,0.00,981.0,meteohub,2013-02-23 17:27:00,
2013-02-23 12:32:00,81.7,53.6,-100.00,SSW,204,10.0,20.0,38,0.00,,,0.00,889.0,meteohub,2013-02-23 17:32:00,
2013-02-23 12:37:00,81.1,52.3,-100.00,South,191,14.0,20.0,37,0.00,,,0.00,304.0,meteohub,2013-02-23 17:37:00,
2013-02-23 12:42:00,81.1,50.9,-100.00,SSW,209,11.0,20.0,35,0.00,,,0.00,487.0,meteohub,2013-02-23 17:42:00,
2013-02-23 12:47:00,80.6,48.9,-100.00,SSW,196,11.0,20.0,33,0.00,,,0.00,1071.0,meteohub,2013-02-23 17:47:00,
2013-02-23 12:52:00,81.3,47.8,-100.00,SSW,207,12.0,20.0,31,0.00,,,0.00,1028.0,meteohub,2013-02-23 17:52:00,
2013-02-23 13:02:00,81.3,49.5,-100.00,South,175,11.0,20.0,33,0.00,,,0.00,942.0,meteohub,2013-02-23 18:02:00,
2013-02-23 13:07:00,81.3,50.2,-100.00,South,184,9.0,20.0,34,0.00,,,0.00,225.0,meteohub,2013-02-23 18:07:00,
2013-02-23 13:12:00,80.4,47.8,-100.00,South,179,9.0,20.0,32,0.00,,,0.00,225.0,meteohub,2013-02-23 18:12:00,
2013-02-23 13:17:00,81.0,45.7,-100.00,SSW,211,12.0,20.0,29,0.00,,,0.00,225.0,meteohub,2013-02-23 18:17:00,
2013-02-23 13:22:00,81.5,48.7,-100.00,South,187,9.0,20.0,32,0.00,,,0.00,879.0,meteohub,2013-02-23 18:22:00,
2013-02-23 13:27:00,81.7,49.8,-100.00,SSE,163,9.0,20.0,33,0.00,,,0.00,877.0,meteohub,2013-02-23 18:27:00,
2013-02-23 13:32:00,81.3,49.5,-100.00,SSE,150,6.0,20.0,33,0.00,,,0.00,860.0,meteohub,2013-02-23 18:32:00,
2013-02-23 13:37:00,81.5,50.4,-100.00,SSW,211,11.0,20.0,34,0.00,,,0.00,146.0,meteohub,2013-02-23 18:37:00,
2013-02-23 13:42:00,80.8,48.2,-100.00,SSW,203,10.0,20.0,32,0.00,,,0.00,169.0,meteohub,2013-02-23 18:42:00,
2013-02-23 13:47:00,81.0,45.7,-100.00,South,178,6.0,20.0,29,0.00,,,0.00,914.0,meteohub,2013-02-23 18:47:00,
2013-02-23 13:57:00,82.4,49.6,-100.00,South,190,4.0,24.0,32,0.00,,,0.00,763.0,meteohub,2013-02-23 18:57:00,
2013-02-23 14:02:00,81.1,48.6,-100.00,ESE,119,9.0,24.0,32,0.00,,,0.00,156.0,meteohub,2013-02-23 19:02:00,
2013-02-23 14:07:00,81.1,46.8,-100.00,SSW,192,6.0,24.0,30,0.00,,,0.00,153.0,meteohub,2013-02-23 19:07:00,
2013-02-23 14:12:00,80.8,45.5,-100.00,SSW,200,13.0,24.0,29,0.00,,,0.00,218.0,meteohub,2013-02-23 19:12:00,
2013-02-23 14:17:00,81.0,43.9,-100.00,South,187,9.0,16.0,27,0.00,,,0.00,962.0,meteohub,2013-02-23 19:17:00,
2013-02-23 14:22:00,81.9,46.4,-100.00,South,188,9.0,16.0,29,0.00,,,0.00,891.0,meteohub,2013-02-23 19:22:00,
2013-02-23 14:27:00,82.2,49.5,-100.00,SSE,163,8.0,16.0,32,0.00,,,0.00,817.0,meteohub,2013-02-23 19:27:00,
2013-02-23 14:32:00,82.6,50.5,-100.00,South,169,7.0,18.0,33,0.00,,,0.00,770.0,meteohub,2013-02-23 19:32:00,
2013-02-23 14:37:00,82.4,50.4,-100.00,South,180,8.0,18.0,33,0.00,,,0.00,733.0,meteohub,2013-02-23 19:37:00,
2013-02-23 14:42:00,82.6,52.2,-100.00,SSW,198,10.0,18.0,35,0.00,,,0.00,715.0,meteohub,2013-02-23 19:42:00,
2013-02-23 14:47:00,81.7,50.5,-100.00,SSW,198,7.0,18.0,34,0.00,,,0.00,181.0,meteohub,2013-02-23 19:47:00,
2013-02-23 14:57:00,82.2,49.5,-100.00,SSE,163,6.0,19.0,32,0.00,,,0.00,680.0,meteohub,2013-02-23 19:57:00,
2013-02-23 15:02:00,82.4,51.3,-100.00,South,190,2.0,19.0,34,0.00,,,0.00,642.0,meteohub,2013-02-23 20:02:00,
2013-02-23 15:07:00,82.0,50.2,-100.00,SSE,159,13.0,19.0,33,0.00,,,0.00,622.0,meteohub,2013-02-23 20:07:00,
2013-02-23 15:12:00,81.9,49.1,-100.00,South,173,9.0,19.0,32,0.00,,,0.00,599.0,meteohub,2013-02-23 20:12:00,
2013-02-23 15:17:00,82.0,50.2,-100.00,South,179,12.0,21.0,33,0.00,,,0.00,573.0,meteohub,2013-02-23 20:17:00,
2013-02-23 15:22:00,82.0,50.2,-100.00,SSE,156,10.0,21.0,33,0.00,,,0.00,563.0,meteohub,2013-02-23 20:22:00,
2013-02-23 15:27:00,81.9,50.0,-100.00,SSW,198,12.0,21.0,33,0.00,,,0.00,561.0,meteohub,2013-02-23 20:27:00,
2013-02-23 15:32:00,81.9,48.2,-100.00,SSW,196,5.0,20.0,31,0.00,,,0.00,538.0,meteohub,2013-02-23 20:32:00,
2013-02-23 15:37:00,81.9,49.1,-100.00,SW,221,13.0,20.0,32,0.00,,,0.00,504.0,meteohub,2013-02-23 20:37:00,
2013-02-23 15:42:00,81.9,49.1,-100.00,South,184,10.0,20.0,32,0.00,,,0.00,554.0,meteohub,2013-02-23 20:42:00,
2013-02-23 15:47:00,81.9,49.1,-100.00,SSW,194,4.0,20.0,32,0.00,,,0.00,515.0,meteohub,2013-02-23 20:47:00,
2013-02-23 15:52:00,81.7,50.5,-100.00,SW,214,12.0,16.0,34,0.00,,,0.00,476.0,meteohub,2013-02-23 20:52:00,
2013-02-23 15:57:00,81.3,49.5,-100.00,South,190,11.0,16.0,33,0.00,,,0.00,485.0,meteohub,2013-02-23 20:57:00,
2013-02-23 16:02:00,81.3,47.8,-100.00,SSW,192,16.0,16.0,31,0.00,,,0.00,445.0,meteohub,2013-02-23 21:02:00,
2013-02-23 16:07:00,81.1,45.9,-100.00,South,189,9.0,16.0,29,0.00,,,0.00,436.0,meteohub,2013-02-23 21:07:00,
2013-02-23 16:17:00,81.0,45.7,-100.00,SSW,210,14.0,20.0,29,0.00,,,0.00,378.0,meteohub,2013-02-23 21:17:00,
2013-02-23 16:22:00,81.1,44.1,-100.00,South,182,7.0,20.0,27,0.00,,,0.00,360.0,meteohub,2013-02-23 21:22:00,
2013-02-23 16:27:00,81.0,43.9,-100.00,SSE,152,14.0,20.0,27,0.00,,,0.00,338.0,meteohub,2013-02-23 21:27:00,
2013-02-23 16:32:00,81.0,43.9,-100.00,SSW,195,10.0,20.0,27,0.00,,,0.00,318.0,meteohub,2013-02-23 21:32:00,
2013-02-23 16:37:00,81.0,42.8,-100.00,SW,228,17.0,20.0,26,0.00,,,0.00,287.0,meteohub,2013-02-23 21:37:00,
2013-02-23 16:42:00,80.8,43.7,-100.00,SSE,165,6.0,20.0,27,0.00,,,0.00,267.0,meteohub,2013-02-23 21:42:00,
2013-02-23 16:47:00,80.4,42.4,-100.00,South,174,9.0,20.0,26,0.00,,,0.00,93.0,meteohub,2013-02-23 21:47:00,
2013-02-23 16:52:00,80.4,41.4,-100.00,SSE,165,6.0,19.0,25,0.00,,,0.00,90.0,meteohub,2013-02-23 21:52:00,
2013-02-23 16:57:00,80.2,40.1,-100.00,SSW,195,9.0,19.0,24,0.00,,,0.00,58.0,meteohub,2013-02-23 21:57:00,
2013-02-23 17:02:00,80.2,40.1,-100.00,SSE,167,6.0,19.0,24,0.00,,,0.00,79.0,meteohub,2013-02-23 22:02:00,
2013-02-23 17:07:00,80.1,38.8,-100.00,SSW,203,8.0,19.0,23,0.00,,,0.00,174.0,meteohub,2013-02-23 22:07:00,
2013-02-23 17:12:00,80.2,39.0,-100.00,South,186,11.0,19.0,23,0.00,,,0.00,171.0,meteohub,2013-02-23 22:12:00,
2013-02-23 17:17:00,80.1,40.1,-100.00,SSW,198,12.0,19.0,24,0.00,,,0.00,144.0,meteohub,2013-02-23 22:17:00,
2013-02-23 17:22:00,79.9,38.8,-100.00,South,187,14.0,19.0,23,0.00,,,0.00,113.0,meteohub,2013-02-23 22:22:00,
2013-02-23 17:27:00,79.7,37.6,-100.00,SSW,199,16.0,19.0,22,0.00,,,0.00,49.0,meteohub,2013-02-23 22:27:00,
2013-02-23 17:32:00,79.3,37.2,-100.00,SSW,213,9.0,19.0,22,0.00,,,0.00,42.0,meteohub,2013-02-23 22:32:00,
2013-02-23 17:37:00,79.0,35.8,-100.00,South,179,6.0,19.0,21,0.00,,,0.00,40.0,meteohub,2013-02-23 22:37:00,
2013-02-23 17:42:00,79.0,34.5,-100.00,SW,214,12.0,19.0,20,0.00,,,0.00,39.0,meteohub,2013-02-23 22:42:00,
2013-02-23 17:52:00,78.6,34.2,-100.00,South,186,7.0,20.0,20,0.00,,,0.00,18.0,meteohub,2013-02-23 22:52:00,
2013-02-23 17:57:00,78.6,34.2,-100.00,SSW,211,9.0,20.0,20,0.00,,,0.00,14.0,meteohub,2013-02-23 22:57:00,
2013-02-23 18:02:00,78.6,34.2,-100.00,SSW,194,14.0,20.0,20,0.00,,,0.00,9.0,meteohub,2013-02-23 23:02:00,
2013-02-23 18:07:00,78.4,32.7,-100.00,South,176,8.0,20.0,19,0.00,,,0.00,5.0,meteohub,2013-02-23 23:07:00,
2013-02-23 18:12:00,78.4,32.7,-100.00,SSW,205,7.0,20.0,19,0.00,,,0.00,0.0,meteohub,2013-02-23 23:12:00,
2013-02-23 18:17:00,78.6,32.9,-100.00,South,180,6.0,19.0,19,0.00,,,0.00,0.0,meteohub,2013-02-23 23:17:00,
2013-02-23 18:22:00,78.4,32.7,-100.00,SSW,198,10.0,19.0,19,0.00,,,0.00,0.0,meteohub,2013-02-23 23:22:00,
2013-02-23 18:27:00,78.4,32.7,-100.00,South,184,5.0,19.0,19,0.00,,,0.00,0.0,meteohub,2013-02-23 23:27:00,
2013-02-23 18:32:00,78.4,32.7,-100.00,SE,137,5.0,19.0,19,0.00,,,0.00,0.0,meteohub,2013-02-23 23:32:00,
2013-02-23 18:37:00,78.4,32.7,-100.00,South,190,11.0,19.0,19,0.00,,,0.00,0.0,meteohub,2013-02-23 23:37:00,
2013-02-23 18:42:00,78.4,32.7,-100.00,SSW,195,9.0,17.0,19,0.00,,,0.00,0.0,meteohub,2013-02-23 23:42:00,
2013-02-23 18:52:00,78.1,31.1,-100.00,SSW,202,4.0,17.0,18,0.00,,,0.00,0.0,meteohub,2013-02-23 23:52:00,
2013-02-23 18:57:00,77.7,30.9,-100.00,SSW,194,5.0,17.0,18,0.00,,,0.00,0.0,meteohub,2013-02-23 23:57:00,
2013-02-23 19:02:00,77.4,30.6,-100.00,SSW,201,4.0,17.0,18,0.00,,,0.00,0.0,meteohub,2013-02-24 00:02:00,
2013-02-23 19:07:00,77.2,30.4,-100.00,SSW,201,7.0,17.0,18,0.00,,,0.00,0.0,meteohub,2013-02-24 00:07:00,
2013-02-23 19:17:00,77.0,30.2,-100.00,SSW,198,4.0,17.0,18,0.00,,,0.00,0.0,meteohub,2013-02-24 00:17:00,
2013-02-23 19:22:00,76.8,30.0,-100.00,SSW,195,7.0,14.0,18,0.00,,,0.00,0.0,meteohub,2013-02-24 00:22:00,
2013-02-23 19:27:00,76.6,30.0,-100.00,SSW,197,4.0,14.0,18,0.00,,,0.00,0.0,meteohub,2013-02-24 00:27:00,
2013-02-23 19:32:00,76.6,30.0,-100.00,SW,216,4.0,14.0,18,0.00,,,0.00,0.0,meteohub,2013-02-24 00:32:00,
2013-02-23 19:37:00,75.6,29.1,-100.00,SW,221,4.0,14.0,18,0.00,,,0.00,0.0,meteohub,2013-02-24 00:37:00,
2013-02-23 19:42:00,74.7,30.9,-100.00,SW,233,4.0,15.0,20,0.01,,,0.00,0.0,meteohub,2013-02-24 00:42:00,
2013-02-23 19:47:00,73.9,30.4,-100.00,SSW,202,0.0,15.0,20,0.01,,,0.00,0.0,meteohub,2013-02-24 00:47:00,
2013-02-23 19:52:00,73.4,29.8,-100.00,SSW,210,3.0,15.0,20,0.01,,,0.02,0.0,meteohub,2013-02-24 00:52:00,
2013-02-23 20:02:00,73.0,28.4,-100.00,SSW,210,1.0,11.0,19,0.02,,,0.02,0.0,meteohub,2013-02-24 01:02:00,
2013-02-23 20:12:00,73.2,28.4,-100.00,SSW,202,6.0,11.0,19,0.02,,,0.02,0.0,meteohub,2013-02-24 01:12:00,
2013-02-23 20:17:00,73.2,28.4,-100.00,South,179,5.0,11.0,19,0.02,,,0.02,0.0,meteohub,2013-02-24 01:17:00,
2013-02-23 20:22:00,73.2,28.4,-100.00,South,186,0.0,11.0,19,0.02,,,0.02,0.0,meteohub,2013-02-24 01:22:00,
2013-02-23 20:27:00,73.2,28.4,-100.00,South,186,3.0,11.0,19,0.02,,,0.02,0.0,meteohub,2013-02-24 01:27:00,
2013-02-23 20:32:00,73.2,28.4,-100.00,South,186,6.0,11.0,19,0.02,,,0.02,0.0,meteohub,2013-02-24 01:32:00,
2013-02-23 20:37:00,73.0,28.4,-100.00,South,173,5.0,9.0,19,0.02,,,0.02,0.0,meteohub,2013-02-24 01:37:00,
2013-02-23 20:42:00,73.0,28.4,-100.00,South,173,1.0,9.0,19,0.02,,,0.02,0.0,meteohub,2013-02-24 01:42:00,
2013-02-23 20:47:00,73.2,28.4,-100.00,South,177,0.0,9.0,19,0.02,,,0.02,0.0,meteohub,2013-02-24 01:47:00,
2013-02-23 20:52:00,73.2,28.4,-100.00,SSW,192,5.0,9.0,19,0.00,,,0.02,0.0,meteohub,2013-02-24 01:52:00,
2013-02-23 20:57:00,73.6,28.8,-100.00,SSW,196,0.0,6.0,19,0.00,,,0.02,0.0,meteohub,2013-02-24 01:57:00,
2013-02-23 21:02:00,73.6,28.8,-100.00,SSW,196,2.0,6.0,19,0.00,,,0.02,0.0,meteohub,2013-02-24 02:02:00,
2013-02-23 21:07:00,73.6,28.8,-100.00,SSW,196,1.0,6.0,19,0.00,,,0.02,0.0,meteohub,2013-02-24 02:07:00,
2013-02-23 21:17:00,73.6,28.8,-100.00,SSW,198,1.0,5.0,19,0.00,,,0.02,0.0,meteohub,2013-02-24 02:17:00,
2013-02-23 21:27:00,73.6,28.8,-100.00,SSW,198,0.0,5.0,19,0.00,,,0.02,0.0,meteohub,2013-02-24 02:27:00,
2013-02-23 21:32:00,73.6,28.8,-100.00,SSW,198,2.0,9.0,19,0.00,,,0.02,0.0,meteohub,2013-02-24 02:32:00,
2013-02-23 21:37:00,73.8,28.9,-100.00,SSW,199,5.0,9.0,19,0.00,,,0.02,0.0,meteohub,2013-02-24 02:37:00,
2013-02-23 21:42:00,73.8,28.9,-100.00,SSW,198,1.0,9.0,19,0.00,,,0.02,0.0,meteohub,2013-02-24 02:42:00,
2013-02-23 21:52:00,73.8,28.9,-100.00,SSW,207,0.0,5.0,19,0.00,,,0.02,0.0,meteohub,2013-02-24 02:52:00,
2013-02-23 21:57:00,73.8,28.9,-100.00,SSW,207,2.0,5.0,19,0.00,,,0.02,0.0,meteohub,2013-02-24 02:57:00,
2013-02-23 22:02:00,73.8,28.9,-100.00,SSW,208,1.0,5.0,19,0.00,,,0.02,0.0,meteohub,2013-02-24 03:02:00,
2013-02-23 22:07:00,73.8,28.9,-100.00,SW,225,0.0,5.0,19,0.00,,,0.02,0.0,meteohub,2013-02-24 03:07:00,
2013-02-23 22:17:00,73.9,29.1,-100.00,WSW,246,0.0,8.0,19,0.00,,,0.02,0.0,meteohub,2013-02-24 03:17:00,
2013-02-23 22:22:00,74.1,29.3,-100.00,WSW,246,3.0,8.0,19,0.00,,,0.02,0.0,meteohub,2013-02-24 03:22:00,
2013-02-23 22:27:00,74.1,29.3,-100.00,WSW,246,0.0,8.0,19,0.00,,,0.02,0.0,meteohub,2013-02-24 03:27:00,
2013-02-23 22:32:00,74.1,29.3,-100.00,WSW,246,0.0,4.0,19,0.00,,,0.02,0.0,meteohub,2013-02-24 03:32:00,
2013-02-23 22:42:00,74.1,29.3,-100.00,SW,221,2.0,4.0,19,0.00,,,0.02,0.0,meteohub,2013-02-24 03:42:00,
2013-02-23 22:47:00,74.1,29.3,-100.00,SW,219,0.0,4.0,19,0.00,,,0.02,0.0,meteohub,2013-02-24 03:47:00,
2013-02-23 22:52:00,74.1,29.3,-100.00,SW,220,2.0,4.0,19,0.00,,,0.02,0.0,meteohub,2013-02-24 03:52:00,
2013-02-23 22:57:00,74.1,29.3,-100.00,SW,220,3.0,6.0,19,0.00,,,0.02,0.0,meteohub,2013-02-24 03:57:00,
2013-02-23 23:02:00,74.1,29.3,-100.00,SW,219,1.0,6.0,19,0.00,,,0.02,0.0,meteohub,2013-02-24 04:02:00,
2013-02-23 23:07:00,74.1,29.3,-100.00,SW,217,3.0,6.0,19,0.00,,,0.02,0.0,meteohub,2013-02-24 04:07:00,
2013-02-23 23:12:00,74.1,29.3,-100.00,SW,219,0.0,6.0,19,0.00,,,0.02,0.0,meteohub,2013-02-24 04:12:00,
2013-02-23 23:17:00,73.9,29.1,-100.00,SW,219,2.0,6.0,19,0.00,,,0.02,0.0,meteohub,2013-02-24 04:17:00,
2013-02-23 23:22:00,73.9,29.1,-100.00,SW,219,0.0,6.0,19,0.00,,,0.02,0.0,meteohub,2013-02-24 04:22:00,
2013-02-23 23:27:00,73.9,29.1,-100.00,SW,219,0.0,5.0,19,0.00,,,0.02,0.0,meteohub,2013-02-24 04:27:00,
2013-02-23 23:32:00,73.8,28.9,-100.00,SW,219,0.0,5.0,19,0.00,,,0.02,0.0,meteohub,2013-02-24 04:32:00,
2013-02-23 23:42:00,73.8,28.9,-100.00,SW,218,0.0,5.0,19,0.00,,,0.02,0.0,meteohub,2013-02-24 04:42:00,
2013-02-23 23:47:00,73.8,28.9,-100.00,SW,219,2.0,5.0,19,0.00,,,0.02,0.0,meteohub,2013-02-24 04:47:00,
2013-02-23 23:52:00,73.6,28.8,-100.00,SW,219,0.0,5.0,19,0.00,,,0.02,0.0,meteohub,2013-02-24 04:52:00,
2013-02-23 23:57:00,73.6,28.8,-100.00,SW,218,0.0,5.0,19,0.00,,,0.02,0.0,meteohub,2013-02-24 04:57:00,